Lincoln, NE

9:36 PM CST on December 05, 2016 (GMT -0600)
Lincoln Municipal

Weather History for KLNK - July, 2012

Change the Weather History Date:

Monday, July 30, 2012

  Actual Average Record
Temperature  
Mean Temperature 83 °F 77 °F  
Max Temperature 98 °F 89 °F 106 °F (1917)
Min Temperature 67 °F 66 °F 46 °F (1971)
Degree Days  
Heating Degree Days 0 0  
Month to date heating degree days 0 0  
Since 1 June heating degree days 11 16  
Since 1 July heating degree days 0 0  
Cooling Degree Days 18 12  
Month to date cooling degree days 553 381  
Year to date cooling degree days 1066 702  
Since 1 June cooling degree days 875 623  
Growing Degree Days 34 (Base 50)    
Moisture  
Dew Point 62 °F    
Average Humidity 53    
Maximum Humidity 84    
Minimum Humidity 22    
Precipitation  
Precipitation 0.02 in 0.10 in 1.58 in (1992)
Month to date precipitation 0.33 3.29  
Year to date precipitation 13.54 17.98  
Snow  
Snow 0.00 in 0.00 in - ()
Month to date snowfall 0.0 0.0  
Since 1 July snowfall 0.0 0.0  
Snow Depth 0.00 in    
Sea Level Pressure  
Sea Level Pressure 29.93 in    
Wind  
Wind Speed 6 mph (SW)    
Max Wind Speed 18 mph    
Max Gust Speed 22 mph    
Visibility 10 miles    
Events Rain    
T = Trace of Precipitation, MM = Missing Value Source: NWS Daily Summary

Daily Weather History Graph

Daily Weather History Graph

Search for Another Location

Airport or City:

Trip Planner

Search our weather history database for the weather conditions in past years. The results will help you decide how hot, cold, wet, or windy it might be!

Date:

Astronomy

Jul. 30, 2012 Rise Set
Actual Time 6:21 AM CDT 8:44 PM CDT
Civil Twilight 5:51 AM CDT 9:15 PM CDT
Nautical Twilight 5:12 AM CDT 9:53 PM CDT
Astronomical Twilight 4:30 AM CDT 10:35 PM CDT
Moon 6:47 PM CDT (7/30) 3:37 AM CDT (7/30)
Length of Visible Light 15h 24m
Length of Day
14h 22m
Waxing Gibbous, 92% of the Moon is Illuminated
Jul 30
Waxing Gibbous
Aug 1
Full
Aug 9
Last Quarter
Aug 17
New
Aug 24
First Quarter

Hourly Weather History & Observations

Time (CDT) Temp. Heat Index Dew Point Humidity Pressure Visibility Wind Dir Wind Speed Gust Speed Precip Events Conditions
12:54 AM 79.0 °F - 66.9 °F 66% 29.88 in 10.0 mi Calm Calm - N/A   Clear
1:54 AM 77.0 °F - 68.0 °F 74% 29.90 in 10.0 mi West 4.6 mph - N/A   Clear
2:54 AM 75.9 °F - 68.0 °F 76% 29.95 in 10.0 mi West 6.9 mph - N/A   Partly Cloudy
3:54 AM 77.0 °F - 70.0 °F 79% 29.98 in 9.0 mi WSW 10.4 mph - 0.00 in Rain Light Rain
4:52 AM 73.4 °F - 66.2 °F 78% 30.00 in 10.0 mi SSW 13.8 mph - 0.02 in Rain Light Rain
4:54 AM 72.0 °F - 66.9 °F 84% 29.95 in 10.0 mi SW 13.8 mph - 0.02 in Rain Light Rain
5:54 AM 70.0 °F - 66.0 °F 87% 29.94 in 10.0 mi WSW 9.2 mph - 0.00 in   Partly Cloudy
6:54 AM 71.1 °F - 63.0 °F 75% 29.89 in 10.0 mi South 5.8 mph - 0.00 in   Scattered Clouds
7:31 AM 71.6 °F - 62.6 °F 73% 29.98 in 10.0 mi North 8.1 mph - N/A   Partly Cloudy
7:54 AM 72.0 °F - 63.0 °F 73% 29.94 in 10.0 mi ENE 9.2 mph - N/A   Partly Cloudy
8:54 AM 73.9 °F - 64.9 °F 73% 29.90 in 10.0 mi ENE 13.8 mph - 0.00 in   Mostly Cloudy
9:54 AM 77.0 °F - 64.9 °F 66% 29.93 in 10.0 mi West 6.9 mph - N/A   Clear
10:54 AM 82.0 °F 82.7 °F 61.0 °F 49% 29.95 in 10.0 mi WNW 4.6 mph - N/A   Partly Cloudy
11:54 AM 87.1 °F 86.7 °F 60.1 °F 40% 29.96 in 10.0 mi Variable 3.5 mph - N/A   Clear
12:54 PM 89.1 °F 90.0 °F 63.0 °F 42% 29.96 in 10.0 mi Calm Calm - N/A   Clear
1:54 PM 91.0 °F 90.9 °F 61.0 °F 36% 29.94 in 10.0 mi Calm Calm - N/A   Clear
2:54 PM 95.0 °F 94.0 °F 57.9 °F 29% 29.92 in 10.0 mi SW 6.9 mph - N/A   Clear
3:54 PM 95.0 °F 94.0 °F 57.9 °F 29% 29.91 in 10.0 mi SSW 6.9 mph - N/A   Clear
4:54 PM 98.1 °F 96.1 °F 54.0 °F 23% 29.90 in 10.0 mi Variable 5.8 mph - N/A   Clear
5:54 PM 96.1 °F 93.8 °F 54.0 °F 24% 29.89 in 10.0 mi South 9.2 mph - N/A   Clear
6:54 PM 93.9 °F 92.2 °F 55.9 °F 28% 29.89 in 10.0 mi SSE 9.2 mph - N/A   Clear
7:54 PM 89.1 °F 89.0 °F 61.0 °F 39% 29.89 in 10.0 mi South 6.9 mph - N/A   Clear
8:54 PM 84.9 °F 85.0 °F 61.0 °F 44% 29.91 in 10.0 mi South 4.6 mph - N/A   Clear
9:54 PM 81.0 °F 82.2 °F 63.0 °F 54% 29.92 in 10.0 mi South 4.6 mph - N/A   Clear
10:54 PM 72.0 °F - 62.1 °F 71% 29.94 in 10.0 mi Calm Calm - N/A   Clear
11:54 PM 71.1 °F - 63.0 °F 75% 29.94 in 10.0 mi North 3.5 mph - N/A   Clear